Change the Weather History Date:

Sunday, April 13, 2014

  Actual Average Record
Temperature  
Mean Temperature 68 °F -  
Max Temperature 82 °F 71 °F 86 °F (1971)
Min Temperature 55 °F 50 °F 24 °F (1976)
Cooling Degree Days 4    
Growing Degree Days 18 (Base 50)    
Moisture  
Dew Point 56 °F    
Average Humidity 75    
Maximum Humidity 100    
Minimum Humidity 30    
Precipitation  
Precipitation 0.00 in - - ()
Sea Level Pressure  
Sea Level Pressure 30.19 in    
Wind  
Wind Speed 5 mph (South)    
Max Wind Speed 15 mph    
Max Gust Speed 22 mph    
Visibility 10 miles    
Events      
Averages and records for this station are not official NWS values.
T = Trace of Precipitation, MM = Missing Value Source: NWS Daily Summary

Daily Weather History Graph

Daily Weather History Graph

Search for Another Location

Airport or City:

Trip Planner

Search our weather history database for the weather conditions in past years. The results will help you decide how hot, cold, wet, or windy it might be!

Date:

Astronomy

Apr. 13, 2014 Rise Set
Actual Time 6:40 AM EDT 7:41 PM EDT
Civil Twilight 6:14 AM EDT 8:07 PM EDT
Nautical Twilight 5:43 AM EDT 8:38 PM EDT
Astronomical Twilight 5:11 AM EDT 9:10 PM EDT
Moon 6:20 PM EDT (4/13) 5:34 AM EDT (4/13)
Length of Visible Light 13h 53m
Length of Day
13h 00m
Waxing Gibbous, 97% of the Moon is Illuminated
Apr 13
Waxing Gibbous
Apr 15
Full
Apr 22
Last Quarter
Apr 29
New
May 6
First Quarter

Hourly Weather History & Observations

Time (EDT) Temp. Heat Index Dew Point Humidity Pressure Visibility Wind Dir Wind Speed Gust Speed Precip Events Conditions
12:15 AM 61.7 °F - 55.0 °F 79% 30.22 in 10.0 mi South 5.8 mph - N/A   Clear
12:35 AM 61.5 °F - 55.6 °F 81% 30.21 in 10.0 mi South 4.6 mph - N/A   Clear
12:55 AM 61.2 °F - 55.9 °F 83% 30.21 in 10.0 mi South 4.6 mph - N/A   Clear
1:15 AM 60.8 °F - 56.1 °F 85% 30.21 in 10.0 mi South 3.5 mph - N/A   Clear
1:35 AM 59.7 °F - 56.3 °F 88% 30.21 in 10.0 mi South 5.8 mph - N/A   Clear
1:55 AM 61.9 °F - 57.2 °F 85% 30.20 in 10.0 mi South 6.9 mph - N/A   Clear
2:15 AM 61.3 °F - 56.7 °F 85% 30.20 in 10.0 mi SSW 6.9 mph - N/A   Clear
2:35 AM 60.8 °F - 56.8 °F 87% 30.20 in 10.0 mi South 4.6 mph - N/A   Clear
2:55 AM 60.3 °F - 56.7 °F 88% 30.20 in 10.0 mi South 3.5 mph - N/A   Clear
3:15 AM 59.9 °F - 56.7 °F 89% 30.20 in 10.0 mi South 3.5 mph - N/A   Clear
3:35 AM 58.3 °F - 55.9 °F 92% 30.20 in 10.0 mi Calm Calm - N/A   Clear
3:55 AM 57.9 °F - 55.8 °F 92% 30.20 in 10.0 mi South 3.5 mph - N/A   Clear
4:15 AM 58.3 °F - 56.3 °F 93% 30.20 in 10.0 mi SSE 3.5 mph - N/A   Clear
4:35 AM 57.7 °F - 55.9 °F 94% 30.20 in 10.0 mi Calm Calm - N/A   Clear
4:55 AM 57.2 °F - 55.6 °F 94% 30.20 in 7.0 mi Calm Calm - N/A   Clear
5:15 AM 56.7 °F - 55.4 °F 96% 30.21 in 7.0 mi Calm Calm - N/A   Clear
5:35 AM 56.5 °F - 55.4 °F 96% 30.21 in 7.0 mi Calm Calm - N/A   Clear
5:55 AM 56.1 °F - 55.0 °F 96% 30.22 in 7.0 mi Calm Calm - N/A   Clear
6:15 AM 55.9 °F - 55.0 °F 97% 30.22 in 7.0 mi Calm Calm - N/A   Clear
6:35 AM 55.6 °F - 54.7 °F 97% 30.22 in 5.0 mi Calm Calm - N/A   Clear
6:56 AM 55.4 °F - 55.4 °F 100% 30.23 in 10.0 mi Calm Calm - N/A   Clear
7:56 AM 60.8 °F - 59.0 °F 94% 30.25 in 10.0 mi South 3.5 mph - N/A   Clear
8:56 AM 68.0 °F - 59.0 °F 73% 30.25 in 10.0 mi South 8.1 mph - N/A   Clear
9:56 AM 73.4 °F - 59.0 °F 61% 30.25 in 10.0 mi SSW 9.2 mph - N/A   Clear
10:56 AM 77.0 °F - 57.2 °F 50% 30.24 in 10.0 mi SW 8.1 mph 16.1 mph N/A   Scattered Clouds
11:56 AM 78.8 °F - 57.2 °F 47% 30.23 in 10.0 mi SSW 9.2 mph - N/A   Scattered Clouds
12:56 PM 80.6 °F 80.3 °F 53.6 °F 39% 30.21 in 10.0 mi South 9.2 mph - N/A   Scattered Clouds
1:56 PM 80.6 °F - 51.8 °F 37% 30.18 in 10.0 mi SSW 6.9 mph - N/A   Scattered Clouds
2:56 PM 82.4 °F - 48.2 °F 30% 30.16 in 10.0 mi SSW 11.5 mph 17.3 mph N/A   Scattered Clouds
3:56 PM 82.4 °F - 51.8 °F 35% 30.14 in 10.0 mi SSW 9.2 mph - N/A   Scattered Clouds
4:56 PM 82.4 °F 81.4 °F 53.6 °F 37% 30.13 in 10.0 mi SSW 15.0 mph - N/A   Scattered Clouds
5:56 PM 78.8 °F - 53.6 °F 42% 30.14 in 10.0 mi North - - N/A   Scattered Clouds
6:56 PM 75.2 °F - 53.6 °F 47% 30.14 in 10.0 mi SSE 15.0 mph 21.9 mph N/A   Clear
7:56 PM 71.6 °F - 55.4 °F 57% 30.15 in 10.0 mi South 11.5 mph - N/A   Clear
8:56 PM 68.0 °F - 57.2 °F 68% 30.16 in 10.0 mi South 9.2 mph - N/A   Clear
9:56 PM 66.2 °F - 57.2 °F 73% 30.17 in 10.0 mi South 6.9 mph - N/A   Clear
10:15 PM 65.8 °F - 57.0 °F 73% 30.17 in 10.0 mi South 6.9 mph - N/A   Clear
10:35 PM 64.6 °F - 57.0 °F 76% 30.17 in 10.0 mi SSE 6.9 mph - N/A   Clear
10:55 PM 64.8 °F - 57.6 °F 77% 30.16 in 10.0 mi South 8.1 mph - N/A   Clear
11:15 PM 63.9 °F - 57.7 °F 80% 30.15 in 10.0 mi SSE 6.9 mph - N/A   Clear
11:35 PM 63.5 °F - 58.1 °F 83% 30.15 in 10.0 mi SSE 5.8 mph - N/A   Clear
11:55 PM 63.7 °F - 58.3 °F 83% 30.15 in 10.0 mi SSE 5.8 mph - N/A   Clear